Casper, WY

3:04 AM MDT on September 24, 2017 (GMT -0600)
Natrona County International

Weather History for KCPR - July, 2013

Change the Weather History Date:

Wednesday, July 24, 2013

  Actual Average Record
Temperature  
Mean Temperature 74 °F 72 °F  
Max Temperature 92 °F 89 °F 100 °F (1959)
Min Temperature 55 °F 54 °F 45 °F (2010)
Degree Days  
Heating Degree Days 0 0  
Month to date heating degree days 0 11  
Since 1 June heating degree days 72 147  
Since 1 July heating degree days 0 11  
Cooling Degree Days 9 7  
Month to date cooling degree days 198 141  
Year to date cooling degree days 291 198  
Since 1 June cooling degree days 281 194  
Growing Degree Days 23 (Base 50)    
Moisture  
Dew Point 52 °F    
Average Humidity 50    
Maximum Humidity 77    
Minimum Humidity 22    
Precipitation  
Precipitation 0.02 in 0.04 in 1.03 in (1982)
Month to date precipitation 1.34 1.09  
Year to date precipitation 8.18 7.91  
Snow  
Snow 0.00 in 0.00 in - ()
Month to date snowfall 0.0 0.0  
Since 1 June snowfall 0.0 0.1  
Since 1 July snowfall 0.0 0.0  
Snow Depth 0.00 in    
Sea Level Pressure  
Sea Level Pressure 29.95 in    
Wind  
Wind Speed 9 mph (ENE)    
Max Wind Speed 29 mph    
Max Gust Speed 36 mph    
Visibility 10 miles    
Events Rain , Thunderstorm    
T = Trace of Precipitation, MM = Missing Value Source: NWS Daily Summary

Daily Weather History Graph

Daily Weather History Graph

Search for Another Location

Airport or City:

Trip Planner

Search our weather history database for the weather conditions in past years. The results will help you decide how hot, cold, wet, or windy it might be!

Date:

Astronomy

Jul. 24, 2013 Rise Set
Actual Time 5:49 AM MDT 8:34 PM MDT
Civil Twilight 5:16 AM MDT 9:07 PM MDT
Nautical Twilight 4:34 AM MDT 9:49 PM MDT
Astronomical Twilight 3:46 AM MDT 10:37 PM MDT
Moon 9:36 PM MDT 8:17 AM MDT
Length of Visible Light 15h 51m
Length of Day
14h 45m
Waning Gibbous, 94% of the Moon is Illuminated
Jul 24
Waning Gibbous
Jul 29
Last Quarter
Aug 6
New
Aug 14
First Quarter
Aug 20
Full

Hourly Weather History & Observations

Time (MDT) Temp. Heat Index Dew Point Humidity Pressure Visibility Wind Dir Wind Speed Gust Speed Precip Events Conditions
12:53 AM 69.1 °F - 51.1 °F 53% 29.98 in 10.0 mi East 9.2 mph - N/A   Clear
1:53 AM 66.9 °F - 52.0 °F 59% 29.98 in 10.0 mi East 10.4 mph - N/A   Clear
2:53 AM 64.9 °F - 52.0 °F 63% 29.97 in 10.0 mi North - - N/A   Clear
3:53 AM 59.0 °F - 51.1 °F 75% 29.99 in 10.0 mi NNW 8.1 mph - N/A   Scattered Clouds
4:53 AM 60.1 °F - 51.1 °F 72% 29.99 in 10.0 mi ENE 4.6 mph - N/A   Clear
5:53 AM 55.9 °F - 48.9 °F 77% 30.01 in 10.0 mi North 4.6 mph - N/A   Clear
6:53 AM 61.0 °F - 50.0 °F 67% 30.01 in 10.0 mi WNW 3.5 mph - N/A   Clear
7:53 AM 66.9 °F - 51.1 °F 57% 30.01 in 10.0 mi North 3.5 mph - N/A   Clear
8:53 AM 73.0 °F - 53.1 °F 49% 30.00 in 10.0 mi NE 6.9 mph - N/A   Clear
9:53 AM 77.0 °F - 52.0 °F 42% 30.00 in 10.0 mi East 8.1 mph - N/A   Clear
10:53 AM 80.1 °F - 52.0 °F 38% 29.98 in 10.0 mi ENE 15.0 mph - N/A   Clear
11:53 AM 82.9 °F 81.9 °F 54.0 °F 37% 29.96 in 10.0 mi East 12.7 mph - N/A   Clear
12:53 PM 84.0 °F - 52.0 °F 33% 29.93 in 10.0 mi East 10.4 mph 23.0 mph N/A   Clear
1:53 PM 88.0 °F - 52.0 °F 29% 29.89 in 10.0 mi ESE 12.7 mph 19.6 mph N/A   Clear
2:53 PM 87.1 °F - 48.9 °F 27% 29.87 in 10.0 mi East 9.2 mph - N/A   Clear
3:53 PM 88.0 °F - 45.0 °F 22% 29.86 in 10.0 mi ENE 6.9 mph - N/A   Partly Cloudy
4:53 PM 90.0 °F - 46.0 °F 22% 29.84 in 10.0 mi NE 9.2 mph - N/A   Partly Cloudy
5:53 PM 84.9 °F - 48.0 °F 28% 29.86 in 10.0 mi East 12.7 mph 21.9 mph 0.00 in   Scattered Clouds
6:51 PM 73.4 °F - 57.2 °F 57% 30.07 in 10.0 mi East 19.6 mph 29.9 mph N/A Thunderstorm Mostly Cloudy
6:53 PM 75.0 °F - 57.9 °F 55% 29.89 in 10.0 mi East 17.3 mph 29.9 mph N/A Thunderstorm Mostly Cloudy
7:05 PM 75.2 °F - 57.2 °F 53% 30.08 in 10.0 mi ESE 15.0 mph 24.2 mph N/A   Overcast
7:53 PM 75.0 °F - 55.9 °F 51% 29.88 in 10.0 mi SE 8.1 mph - N/A   Clear
8:53 PM 73.0 °F - 46.9 °F 39% 29.91 in 10.0 mi West 16.1 mph 24.2 mph N/A   Clear
9:30 PM 71.6 °F - 50.0 °F 46% 30.13 in 10.0 mi West 19.6 mph 29.9 mph N/A Thunderstorm Mostly Cloudy
9:53 PM 66.9 °F - 53.1 °F 61% 29.96 in 10.0 mi NW 15.0 mph 23.0 mph 0.00 in Rain Light Rain
10:53 PM 64.0 °F - 55.9 °F 75% 29.93 in 10.0 mi South 6.9 mph - 0.02 in   Scattered Clouds
11:53 PM 64.9 °F - 52.0 °F 63% 29.89 in 10.0 mi South 6.9 mph - N/A   Clear